Regional Weather Roundup
Issued by NWS

Home | Current Version | Previous Version | Text Only | Print | Product List | Glossary On
Versions: 1 2 3 4 5 6 7 8 9 10 11 12 13 14 15 16 17 18 19 20 21 22 23 24 25 26 27 28 29 30 31 32 33 34 35 36 37 38 39 40 41 42 43 44 45 46 47 48 49 50
000
ASUS43 KDTX 292210
RWRMI
MICHIGAN HOURLY REGIONAL WEATHER ROUNDUP
NATIONAL WEATHER SERVICE DETROIT/PONTIAC MI
600 PM EDT FRI APR 29 2016

NOTE: "FAIR" INDICATES FEW OR NO CLOUDS BELOW 12,000 FEET WITH NO
SIGNIFICANT WEATHER AND/OR OBSTRUCTION TO VISIBILITY.

MIZ047>049-052>055-059>063-066>070-074>076-081>083-292300-
SOUTHEAST LOWER MICHIGAN

CITY           SKY/WX    TMP DP  RH WIND       PRES   REMARKS
ADRIAN         CLOUDY    52  40  63 SE8       30.10R
ALMA           MOSUNNY   51  38  59 E12       30.11S
ANN ARBOR      CLOUDY    50  38  63 E6        30.10R
BAD AXE        MOSUNNY   48  31  50 NE12G17   30.11F
CARO           MOSUNNY   53  38  58 NW3       30.09F
DETROIT CITY   CLOUDY    50  34  54 E6        30.10R
DETROIT        CLOUDY    51  37  58 N7        30.11R
FLINT          CLOUDY    52  36  54 NE6       30.10S
GROSSE ILE     CLOUDY    50  37  62 NE6       30.09F
HILLSDALE      CLOUDY    53  40  62 E5        30.08R
HOWELL         CLOUDY    49  38  65 NE3       30.10S

CITY           SKY/WX    TMP DP  RH WIND       PRES   REMARKS
JACKSON        CLOUDY    52  39  61 VRB5      30.09R
LAMBERTVILLE   PTSUNNY   51  40  66 E6        30.11R
LANSING        CLOUDY    49  39  68 N6        30.12R
LAPEER         CLOUDY    50  31  48 NE3       30.13R
MASON          CLOUDY    49  40  71 N5        30.11R
MONROE         CLOUDY    50  40  68 E6        30.10R
MT. CLEMENS    CLOUDY    51  35  53 E8        30.10R
PONTIAC        CLOUDY    50  35  56 N3        30.09R
PORT HOPE        N/A     44  36  73 N5        30.13F
PORT HURON     CLOUDY    48  30  49 NE9       30.11R
TRI CITIES     MOSUNNY   54  36  50 E8        30.13R
MIDLAND        FAIR      52  36  53 E9        30.12R
TROY           CLOUDY    53  33  48 E5        30.11R
SAGINAW HB     MOSUNNY   52  37  58 NE6       30.13R
$$
MIZ043>046-050>051-056>058-064>065-071>073-077>080-292300-
SOUTHWEST LOWER MICHIGAN

CITY           SKY/WX    TMP DP  RH WIND       PRES   REMARKS
BATTLE CREEK   CLOUDY    52  40  63 N5        30.10R
BENTON HARBOR  CLOUDY    48  41  76 NW5       30.12R
BIG RAPIDS     MOSUNNY   55  31  40 E5        30.09R
COLDWATER      CLOUDY    53  42  66 N5        30.09R
FREMONT        FAIR      56  33  40 E7        30.09S
HOLLAND        CLOUDY    52  40  63 E5        30.11R
GRAND RAPIDS   CLOUDY    52  40  63 SE8       30.12R
IONIA          CLOUDY    48  38  68 E9        30.11R
KALAMAZOO      CLOUDY    53  40  61 NE5       30.10R
LUDINGTON      SUNNY     51  32  48 NW8       30.11R
MARSHALL       CLOUDY    52  40  61 CALM      30.09R
MOUNT PLEASANT MOSUNNY   54  31  41 E5        30.11R
MUSKEGON       PTSUNNY   54  37  52 E7        30.12R
SOUTH HAVEN    CLOUDY    47  41  77 NW6       30.11R
$$
MIZ016>042-292300-
NORTHERN LOWER MICHIGAN

CITY           SKY/WX    TMP DP  RH WIND       PRES   REMARKS
ALPENA         SUNNY     52  33  48 E12       30.13F
BEAVER ISLAND  CLOUDY    54  28  37 NW6       30.12F
BELLAIRE       SUNNY     61  27  27 CALM      30.08S
CADILLAC       PTSUNNY   58  34  39 E9        30.07R
CHARLEVOIX     SUNNY     51  32  47 N9        30.13F
FRANKFORT      SUNNY     53  33  46 N10G17    30.09S
GAYLORD        SUNNY     57  29  34 NE12      30.08F
GRAYLING       SUNNY     57  28  33 E9        30.09F
HARBOR SPRINGS SUNNY     56  29  35 NE9       30.11F
HOUGHTON LAKE  PTSUNNY   56  31  38 E9        30.09S
MANISTEE       SUNNY     50  32  50 NW10      30.10S
OSCODA         CLOUDY    46  31  55 E6        30.14F
PELLSTON       SUNNY     57  28  33 E9        30.13F
ROGERS CITY    SUNNY     49  30  47 NE7       30.15F
TRAVERSE CITY  MOSUNNY   54  33  45 VRB5      30.08F
$$
MIZ007>008-015-292300-
EASTERN UPPER MICHIGAN

CITY           SKY/WX    TMP DP  RH WIND       PRES   REMARKS
KINROSS          N/A     54  28  37 SW5       30.13R
MACKINAC ISLAN MOSUNNY   52  28  38 SE8       30.14R
NEWBERRY       MOSUNNY   56  31  39 N10G16    30.12R
S. S. MARIE    CLOUDY    56  30  37 NW9       30.12S
MUNISING         N/A     42  36  79 NW10      30.16F
$$
MIZ004>006-011>014-085-292300-
CENTRAL UPPER MICHIGAN

CITY           SKY/WX    TMP DP  RH WIND       PRES   REMARKS
MANISTIQUE     MOSUNNY   53  27  36 SW3       30.12F
ESCANABA       SUNNY     54  27  35 SE8       30.12S
MENOMINEE      SUNNY     54  27  35 E7        30.14R
SAWYER-GWINN   MOSUNNY   48  28  46 NE16      30.11F
$$
MIZ001>003-009>011-084-292300-
WESTERN UPPER MICHIGAN

CITY           SKY/WX    TMP DP  RH WIND       PRES   REMARKS
IRON MOUNTAIN  CLOUDY    59  24  26 S6        30.09S
HOUGHTON       SUNNY     50  32  50 E12       30.15F
COPPER HARBOR    N/A     43  34  70 CALM      30.19F
IRONWOOD         N/A     46  30  53 NE10      30.14R
$$

ABBREVIATIONS USED IN REMARKS
   TC - TEMPERATURE IN CELSIUS
  WCI - WIND CHILL INDEX
   HX - HEAT INDEX
  VSB - VISIBILITY




USA.gov is the U.S. government's official web portal to all federal, state and local government web resources and services.